Weather History for Concordia, KS

Change the Weather History Date:

Friday, November 16, 2012

  Actual Average Record
Temperature  
Mean Temperature 42 °F 41 °F  
Max Temperature 58 °F 52 °F 72 °F (1999)
Min Temperature 25 °F 31 °F 6 °F (1955)
Degree Days  
Heating Degree Days 23 24  
Month to date heating degree days 288 314  
Since 1 July heating degree days 735 705  
Cooling Degree Days 0 0  
Month to date cooling degree days 0 0  
Year to date cooling degree days 1643 1348  
Moisture  
Dew Point 30 °F    
Average Humidity 66    
Maximum Humidity 92    
Minimum Humidity 40    
Precipitation  
Precipitation 0.00 in 0.03 in 1.94 in (1996)
Month to date precipitation 0.45 0.66  
Year to date precipitation 23.08 26.59  
Snow  
Snow 0.00 in 0.10 in 3.50 in (2009)
Month to date snowfall 0.0 0.9  
Year to date snowfall 5.8 14.8  
Since 1 July snowfall 0.0 1.1  
Snow Depth 0.00 in    
Sea Level Pressure  
Sea Level Pressure 30.38 in    
Wind  
Wind Speed 7 mph (SE)    
Max Wind Speed 15 mph    
Max Gust Speed 17 mph    
Visibility 10 miles    
Events      
T = Trace of Precipitation, MM = Missing Value Source: NWS Daily Summary

Daily Weather History Graph

Daily Weather History Graph

Search for Another Location

Airport:

Trip Planner

Search our weather history database for the weather conditions in past years. The results will help you decide how hot, cold, wet, or windy it might be!

Date:

Astronomy

Nov. 16, 2012 Rise Set
Actual Time 7:16 AM CST 5:14 PM CST
Civil Twilight 6:47 AM CST 5:43 PM CST
Nautical Twilight 6:14 AM CST 6:15 PM CST
Astronomical Twilight 5:43 AM CST 6:47 PM CST
Moon 10:11 AM CST (11/16) 8:15 PM CST (11/16)
Length of Visible Light 10h 55m
Length of Day
9h 57m
Waxing Crescent, 12% of the Moon is Illuminated
Nov 16
Waxing Crescent
Nov 20
First Quarter
Nov 28
Full
Dec 6
Last Quarter
Dec 13
New

Hourly Weather History & Observations

Time (CST) Temp. Windchill Dew Point Humidity Pressure Visibility Wind Dir Wind Speed Gust Speed Precip Events Conditions
12:55 AM 36.0 °F 32.1 °F 28.9 °F 76% 30.43 in 10.0 mi NE 4.6 mph - N/A   Clear
1:55 AM 35.1 °F 31.0 °F 28.0 °F 76% 30.44 in 10.0 mi NNE 4.6 mph - N/A   Clear
2:55 AM 34.0 °F - 28.0 °F 79% 30.44 in 10.0 mi Calm Calm - N/A   Clear
3:55 AM 32.0 °F - 27.0 °F 82% 30.43 in 10.0 mi Calm Calm - N/A   Clear
4:55 AM 30.9 °F - 27.0 °F 85% 30.43 in 10.0 mi Calm Calm - N/A   Clear
5:55 AM 27.0 °F 23.0 °F 25.0 °F 92% 30.43 in 10.0 mi East 3.5 mph - N/A   Clear
6:55 AM 28.9 °F - 26.1 °F 89% 30.45 in 10.0 mi Calm Calm - N/A   Clear
7:55 AM 27.0 °F - 24.1 °F 89% 30.46 in 10.0 mi Calm Calm - N/A   Clear
8:55 AM 35.1 °F 31.0 °F 30.0 °F 82% 30.46 in 10.0 mi East 4.6 mph - N/A   Clear
9:55 AM 39.9 °F 34.5 °F 33.1 °F 77% 30.45 in 10.0 mi East 8.1 mph - N/A   Clear
10:55 AM 48.0 °F - 35.1 °F 61% 30.43 in 10.0 mi East 6.9 mph - N/A   Clear
11:55 AM 53.1 °F - 34.0 °F 48% 30.40 in 10.0 mi ESE 9.2 mph - N/A   Clear
12:55 PM 55.9 °F - 32.0 °F 40% 30.37 in 10.0 mi South 10.4 mph - N/A   Clear
1:55 PM 57.0 °F - 33.1 °F 40% 30.35 in 10.0 mi SSE 11.5 mph - N/A   Clear
2:55 PM 57.9 °F - 33.1 °F 39% 30.32 in 10.0 mi South 10.4 mph - N/A   Clear
3:55 PM 57.0 °F - 33.1 °F 40% 30.33 in 10.0 mi South 11.5 mph - N/A   Clear
4:55 PM 53.1 °F - 34.0 °F 48% 30.32 in 10.0 mi SSE 8.1 mph - N/A   Clear
5:55 PM 45.0 °F 40.6 °F 33.1 °F 63% 30.32 in 10.0 mi SSE 8.1 mph - N/A   Clear
6:55 PM 44.1 °F 39.0 °F - N/A% 30.31 in 10.0 mi SSE 9.2 mph - N/A   Clear
7:55 PM 46.9 °F - - N/A% 30.31 in 10.0 mi South 10.4 mph - N/A   Clear
8:55 PM 46.0 °F 41.0 °F 30.9 °F 56% 30.30 in 10.0 mi SSE 10.4 mph - N/A   Clear
9:55 PM 45.0 °F 40.1 °F 32.0 °F 60% 30.30 in 10.0 mi SSE 9.2 mph - N/A   Clear
10:55 PM 43.0 °F 37.7 °F 30.9 °F 62% 30.30 in 10.0 mi SSE 9.2 mph - N/A   Clear
11:55 PM 37.9 °F 31.5 °F 30.0 °F 73% 30.30 in 10.0 mi SSE 9.2 mph - N/A   Clear